Location: Home
(42.5358°N, 72.7383°W)
Time: 14:58:28
(UTC-05:00)

Vanguard 3 - Pass Details

Date: 04 December 2021
Orbit: 508 x 3260 km, 33.3° (Epoch: 20 January)

Event Time Altitude Azimuth Distance (km) Brightness Sun altitude
Rises 03:17:04 0° 234° (SW) 6,881 - -41.1°
Reaches altitude 10° 03:21:36 10° 229° (SW) 6,040 - -40.3°
Exits shadow 03:31:22 35° 212° (SSW) 4,437 10.5 -38.5°
Maximum altitude 03:40:19 52° 161° (SSE) 3,645 10.3 -36.8°
Drops below altitude 10° 03:56:01 10° 91° (E) 5,168 12.0 -33.9°
Sets 03:59:32 0° 87° (E) 5,873 12.6 -33.3°
